Cloncurry, Queensland

4:30 PM AEST on September 05, 2015 (GMT +1000)
Cloncurry | | Change Station
CLOSE
Current Station
Airport
Location: Cloncurry Airport,
Elevation: 614 ft
Nearby Weather Stations

Elev 614 ft 20.67 °S, 140.50 °E | Updated 30 minutes ago

Clear
Clear
82 °F
Feels Like 82 °F
N
6
Wind Variable Wind from SW
Gusts mph

Today
High -- | Low -- °F
--% Chance of Precip.
Yesterday
High -- | Low -- °F
Precip. -- in
6:44 AM 6:30 PM
Waning Gibbous, 52% visible
Pressure 30.01 in
Visibility -9999.0 miles
Clouds
Dew Point 27 °F
Humidity 13%
Rainfall 0.00 in
Snow Depth Not available.
UV Not available.
Pollen Not available.
Air Quality Not available.
Flu Activity Not available.
METAR YCCY 050600Z AUTO 23005KT 150V270 //// // ////// 28/M03 Q1016
Pressure 30.01 in
Visibility -9999.0 miles
Clouds
Dew Point 27 °F
Humidity 13%
Rainfall 0.00 in
Snow Depth Not available.
UV Not available.
Pollen Not available.
Air Quality Not available.
Flu Activity Not available.
METAR YCCY 050600Z AUTO 23005KT 150V270 //// // ////// 28/M03 Q1016

10-Day Weather Forecast

×

Almanac

Astronomy

Sep. 05, 2015 Rise Set
Actual Time
Civil Twilight
Nautical Twilight
Astronomical Twilight
Moon
Length of Visible Light
Length of Day
Tomorrow will be .
, % of the Moon is Illuminated

Today's Extremes

Country Highs Country Lows

Community

WunderPhotos

Upload Photos

1,852,430 photos uploaded!

WunderBlogs® & News

Nearby

Air Quality

  Air Quality AQ Index Pollutant
Not available.

Snow Depth

Station Depth Elevation

Earthquake Activity

City Distance Mag. Time & Date
Minimum magnitude displayed is 2.5.

Coastal Water Temperatures

Place Temperature

Stations

Nearby Weather Stations

Station Location Temp. Windchill Dew Point Humidity Wind Precip. Elev Updated Type